SVYATOBOR 1 (RS60S)

Last updated on Mon Sep 15 2025 00:03:09 GMT+0000 (Coordinated Universal Time)

1 57187U 23091X 25257.25045866 .00006289 00000+0 29178-3 0 9994 2 57187 97.5513 315.0684 0010005 347.9436 12.1558 15.20362986122299
UTC large
Height (km)
Speed (km/s)
/
Latitude / Longitude
Inclination (degrees)
Orbital Period (minutes)
Azimuth
Elevation
Range (km)
Doppler Factor

Next 0 passes for location: London (51.5072 / 0.1276)

Sorry there are no passes over London.